カタログに戻る

SZ-23

運用中科学VLEO
NORAD 69180·PAYLOAD·🇨🇳 China

打ち上げ May 24, 2026 から Jiuquan Satellite Launch Center

Loading…

次のパス (今後24時間)

TLE

最新Source: Space-Track

元期: Sep 14, 2026, 14:01 UTC

1 69180U 26113A   26257.58463244  .00018605  00000-0  22780-3 0  9997
2 69180  41.4676 139.2408 0002663 278.8217  81.2320 15.59928303307554

AllMySatでSZ-23をリアルタイム追跡

Download on the App Store